Time,TemperatureF,DewpointF,PressureIn,WindDirection,WindDirectionDegrees,WindSpeedMPH,WindSpeedGustMPH,Humidity,HourlyPrecipIn,Conditions,Clouds,dailyrainin,SoftwareType,DateUTC
2013-01-11 00:04:00,22.6,21.6,29.53,NW,315,6.7,8.1,96,0.00,CLR,,0.00,WeatherDisplay:10.37,2013-01-11 07:04:00,
2013-01-11 00:09:00,22.6,21.6,29.53,North,360,3.7,4.6,96,0.00,CLR,,0.00,WeatherDisplay:10.37,2013-01-11 07:09:00,
2013-01-11 00:14:00,22.6,21.6,29.53,NNW,338,4.1,8.1,96,0.00,CLR,,0.00,WeatherDisplay:10.37,2013-01-11 07:14:00,
2013-01-11 00:19:00,22.6,21.6,29.53,NNW,338,4.6,4.7,96,0.00,CLR,,0.00,WeatherDisplay:10.37,2013-01-11 07:19:00,
2013-01-11 00:24:00,22.5,21.5,29.53,WNW,292,7.2,8.1,96,0.00,CLR,,0.00,WeatherDisplay:10.37,2013-01-11 07:24:00,
2013-01-11 00:29:00,22.3,21.3,29.53,NE,45,6.5,9.2,96,0.00,CLR,,0.00,WeatherDisplay:10.37,2013-01-11 07:29:00,
2013-01-11 00:34:00,22.3,21.3,29.53,NW,315,5.0,6.9,96,0.00,CLR,,0.00,WeatherDisplay:10.37,2013-01-11 07:34:00,
2013-01-11 00:39:00,22.1,21.1,29.54,NE,45,6.4,6.9,96,0.00,CLR,,0.00,WeatherDisplay:10.37,2013-01-11 07:39:00,
2013-01-11 00:44:00,22.1,21.1,29.54,WNW,292,6.1,8.1,96,0.00,CLR,,0.00,WeatherDisplay:10.37,2013-01-11 07:44:00,
2013-01-11 00:49:00,21.7,20.7,29.54,NE,45,5.4,6.9,96,0.00,CLR,,0.00,WeatherDisplay:10.37,2013-01-11 07:49:00,
2013-01-11 00:54:00,21.6,20.6,29.53,West,270,6.6,8.1,96,0.00,CLR,,0.00,WeatherDisplay:10.37,2013-01-11 07:54:00,
2013-01-11 00:59:00,21.6,20.6,29.53,ENE,68,5.9,8.1,96,0.00,CLR,,0.00,WeatherDisplay:10.37,2013-01-11 07:59:00,
2013-01-11 01:04:00,21.2,20.2,29.55,NNE,22,5.6,6.9,96,0.00,CLR,,0.00,WeatherDisplay:10.37,2013-01-11 08:04:00,
2013-01-11 01:09:00,21.0,19.8,29.55,North,360,10.9,12.7,95,0.00,CLR,,0.00,WeatherDisplay:10.37,2013-01-11 08:09:00,
2013-01-11 01:14:00,21.0,19.8,29.55,NNE,22,4.7,6.9,95,0.00,CLR,,0.00,WeatherDisplay:10.37,2013-01-11 08:14:00,
2013-01-11 01:19:00,21.0,19.8,29.54,NE,45,4.2,5.8,95,0.00,CLR,,0.00,WeatherDisplay:10.37,2013-01-11 08:19:00,
2013-01-11 01:24:00,20.5,19.3,29.54,North,360,7.9,11.5,95,0.00,CLR,,0.00,WeatherDisplay:10.37,2013-01-11 08:24:00,
2013-01-11 01:29:00,20.5,19.3,29.55,North,360,7.1,8.1,95,0.00,CLR,,0.00,WeatherDisplay:10.37,2013-01-11 08:29:00,
2013-01-11 01:34:00,20.5,19.3,29.55,NNW,338,8.3,13.5,95,0.00,CLR,,0.00,WeatherDisplay:10.37,2013-01-11 08:34:00,
2013-01-11 01:39:00,20.1,18.9,29.55,NW,315,8.6,11.5,95,0.00,CLR,,0.00,WeatherDisplay:10.37,2013-01-11 08:39:00,
2013-01-11 01:44:00,20.1,18.9,29.55,NNW,338,6.0,8.3,95,0.00,CLR,,0.00,WeatherDisplay:10.37,2013-01-11 08:44:00,
2013-01-11 01:49:00,20.1,18.9,29.55,NNE,22,5.0,5.8,95,0.00,CLR,,0.00,WeatherDisplay:10.37,2013-01-11 08:49:00,
2013-01-11 01:54:00,20.1,18.9,29.55,NE,45,7.1,9.2,95,0.00,CLR,,0.00,WeatherDisplay:10.37,2013-01-11 08:54:00,
2013-01-11 01:59:00,19.9,18.7,29.55,WNW,292,5.2,7.8,95,0.00,CLR,,0.00,WeatherDisplay:10.37,2013-01-11 08:59:00,
2013-01-11 02:04:00,19.8,18.6,29.57,NW,315,4.7,5.8,95,0.00,CLR,,0.00,WeatherDisplay:10.37,2013-01-11 09:04:00,
2013-01-11 02:09:00,19.8,18.6,29.57,WNW,292,6.2,9.2,95,0.00,CLR,,0.00,WeatherDisplay:10.37,2013-01-11 09:09:00,
2013-01-11 02:14:00,19.8,18.6,29.56,NNE,22,4.9,6.3,95,0.00,CLR,,0.00,WeatherDisplay:10.37,2013-01-11 09:14:00,
2013-01-11 02:19:00,19.8,18.6,29.56,NE,45,7.0,8.1,95,0.00,CLR,,0.00,WeatherDisplay:10.37,2013-01-11 09:19:00,
2013-01-11 02:24:00,19.8,18.6,29.56,North,360,6.1,9.4,95,0.00,OVC,,0.00,WeatherDisplay:10.37,2013-01-11 09:24:00,
2013-01-11 02:29:00,19.8,18.6,29.57,NW,315,7.8,8.1,95,0.00,OVC,,0.00,WeatherDisplay:10.37,2013-01-11 09:29:00,
2013-01-11 02:34:00,19.8,18.6,29.57,NNE,22,5.2,6.9,95,0.00,OVC,,0.00,WeatherDisplay:10.37,2013-01-11 09:34:00,
2013-01-11 02:39:00,19.8,18.6,29.57,NNW,338,4.8,5.8,95,0.00,OVC,,0.00,WeatherDisplay:10.37,2013-01-11 09:39:00,
2013-01-11 02:44:00,19.8,18.6,29.57,NE,45,6.9,10.4,95,0.00,OVC,,0.00,WeatherDisplay:10.37,2013-01-11 09:44:00,
2013-01-11 02:49:00,19.4,18.2,29.57,North,360,7.2,8.1,95,0.00,OVC,,0.00,WeatherDisplay:10.37,2013-01-11 09:49:00,
2013-01-11 02:54:00,19.4,18.2,29.56,NNW,338,6.5,8.8,95,0.00,OVC,,0.00,WeatherDisplay:10.37,2013-01-11 09:54:00,
2013-01-11 02:59:00,19.2,18.0,29.56,WNW,292,10.7,11.5,95,0.00,OVC,,0.00,WeatherDisplay:10.37,2013-01-11 09:59:00,
2013-01-11 03:04:00,19.2,18.0,29.55,NE,45,8.8,9.2,95,0.00,OVC,,0.00,WeatherDisplay:10.37,2013-01-11 10:04:00,
2013-01-11 03:09:00,19.0,17.6,29.55,NE,45,4.4,5.8,94,0.00,OVC,,0.00,WeatherDisplay:10.37,2013-01-11 10:09:00,
2013-01-11 03:14:00,18.9,17.5,29.56,NNE,22,3.7,5.8,94,0.00,OVC,,0.00,WeatherDisplay:10.37,2013-01-11 10:14:00,
2013-01-11 03:19:00,18.1,16.7,29.56,NNE,22,8.8,11.5,94,0.00,OVC,,0.00,WeatherDisplay:10.37,2013-01-11 10:19:00,
2013-01-11 03:24:00,17.8,16.4,29.56,North,360,7.1,10.4,94,0.00,OVC,,0.00,WeatherDisplay:10.37,2013-01-11 10:24:00,
2013-01-11 03:29:00,17.8,16.4,29.57,East,90,4.2,4.6,94,0.00,OVC,,0.00,WeatherDisplay:10.37,2013-01-11 10:29:00,
2013-01-11 03:34:00,17.6,16.2,29.57,NNW,338,4.9,5.8,94,0.00,OVC,,0.00,WeatherDisplay:10.37,2013-01-11 10:34:00,
2013-01-11 03:39:00,17.2,15.8,29.58,NNE,22,6.7,9.2,94,0.00,OVC,,0.00,WeatherDisplay:10.37,2013-01-11 10:39:00,
2013-01-11 03:44:00,17.2,15.8,29.58,ENE,68,3.6,5.8,94,0.00,OVC,,0.00,WeatherDisplay:10.37,2013-01-11 10:44:00,
2013-01-11 03:49:00,17.1,15.7,29.57,NE,45,5.8,9.2,94,0.00,OVC,,0.00,WeatherDisplay:10.37,2013-01-11 10:49:00,
2013-01-11 03:54:00,16.7,15.3,29.57,NNW,338,7.4,9.2,94,0.00,OVC,,0.00,WeatherDisplay:10.37,2013-01-11 10:54:00,
2013-01-11 03:59:00,16.7,15.3,29.57,NW,315,5.5,8.1,94,0.00,OVC,,0.00,WeatherDisplay:10.37,2013-01-11 10:59:00,
2013-01-11 04:04:00,16.3,14.9,29.56,NNW,338,6.0,8.1,94,0.00,OVC,,0.00,WeatherDisplay:10.37,2013-01-11 11:04:00,
2013-01-11 04:09:00,16.3,14.9,29.56,NE,45,4.0,5.8,94,0.00,OVC,,0.00,WeatherDisplay:10.37,2013-01-11 11:09:00,
2013-01-11 04:14:00,16.3,14.9,29.57,WNW,292,7.1,9.2,94,0.00,OVC,,0.00,WeatherDisplay:10.37,2013-01-11 11:14:00,
2013-01-11 04:19:00,16.2,14.8,29.57,NNW,338,7.8,10.4,94,0.00,OVC,,0.00,WeatherDisplay:10.37,2013-01-11 11:19:00,
2013-01-11 04:24:00,16.0,14.6,29.57,NW,315,6.6,9.2,94,0.00,OVC,,0.00,WeatherDisplay:10.37,2013-01-11 11:24:00,
2013-01-11 04:29:00,16.0,14.6,29.57,NW,315,5.1,5.8,94,0.00,OVC,,0.00,WeatherDisplay:10.37,2013-01-11 11:29:00,
2013-01-11 04:34:00,16.0,14.6,29.57,NE,45,7.5,9.4,94,0.00,OVC,,0.00,WeatherDisplay:10.37,2013-01-11 11:34:00,
2013-01-11 04:39:00,16.0,14.3,29.56,NE,45,5.5,6.9,93,0.00,OVC,,0.00,WeatherDisplay:10.37,2013-01-11 11:39:00,
2013-01-11 04:44:00,16.0,14.3,29.56,NNE,22,7.2,8.1,93,0.00,OVC,,0.00,WeatherDisplay:10.37,2013-01-11 11:44:00,
2013-01-11 04:49:00,16.0,14.3,29.57,North,360,5.9,5.9,93,0.00,OVC,,0.00,WeatherDisplay:10.37,2013-01-11 11:49:00,
2013-01-11 04:54:00,16.0,14.3,29.57,WNW,292,5.4,5.8,93,0.00,OVC,,0.00,WeatherDisplay:10.37,2013-01-11 11:54:00,
2013-01-11 04:59:00,15.8,14.1,29.57,NNE,22,4.5,6.9,93,0.00,OVC,,0.00,WeatherDisplay:10.37,2013-01-11 11:59:00,
2013-01-11 05:05:00,15.6,13.9,29.57,North,360,7.0,9.2,93,0.00,-SN,,0.00,WeatherDisplay:10.37,2013-01-11 12:05:00,
2013-01-11 05:10:00,15.6,13.9,29.57,NE,45,5.7,8.1,93,0.00,-SN,,0.00,WeatherDisplay:10.37,2013-01-11 12:10:00,
2013-01-11 05:15:00,15.6,13.9,29.58,NE,45,5.3,8.1,93,0.00,-SN,,0.00,WeatherDisplay:10.37,2013-01-11 12:15:00,
2013-01-11 05:20:00,15.6,13.9,29.58,WNW,292,6.5,8.3,93,0.00,-SN,,0.00,WeatherDisplay:10.37,2013-01-11 12:20:00,
2013-01-11 05:25:00,15.4,13.7,29.58,NNW,338,7.2,9.2,93,0.00,-SN,,0.00,WeatherDisplay:10.37,2013-01-11 12:25:00,
2013-01-11 05:30:00,15.4,13.7,29.56,NNW,338,4.7,9.2,93,0.00,-SN,,0.00,WeatherDisplay:10.37,2013-01-11 12:30:00,
2013-01-11 05:35:00,15.3,13.6,29.56,NNE,22,6.7,8.1,93,0.00,-SN,,0.00,WeatherDisplay:10.37,2013-01-11 12:35:00,
2013-01-11 05:40:00,15.3,13.6,29.56,WNW,292,4.6,5.8,93,0.00,-SN,,0.00,WeatherDisplay:10.37,2013-01-11 12:40:00,
2013-01-11 05:45:00,15.3,13.6,29.56,WNW,292,7.4,9.2,93,0.00,OVC,,0.00,WeatherDisplay:10.37,2013-01-11 12:45:00,
2013-01-11 05:50:00,15.1,13.4,29.57,NW,315,6.0,8.1,93,0.00,OVC,,0.00,WeatherDisplay:10.37,2013-01-11 12:50:00,
2013-01-11 05:55:00,15.1,13.4,29.57,ENE,68,5.9,8.1,93,0.00,OVC,,0.00,WeatherDisplay:10.37,2013-01-11 12:55:00,
2013-01-11 06:00:00,15.1,13.4,29.57,NW,315,4.7,5.8,93,0.00,OVC,,0.00,WeatherDisplay:10.37,2013-01-11 13:00:00,
2013-01-11 06:05:00,15.1,13.4,29.58,NW,315,4.4,5.8,93,0.00,OVC,,0.00,WeatherDisplay:10.37,2013-01-11 13:05:00,
2013-01-11 06:10:00,15.1,13.4,29.58,NNW,338,7.8,9.2,93,0.00,OVC,,0.00,WeatherDisplay:10.37,2013-01-11 13:10:00,
2013-01-11 06:15:00,15.1,13.4,29.58,NNE,22,5.5,8.1,93,0.00,OVC,,0.00,WeatherDisplay:10.37,2013-01-11 13:15:00,
2013-01-11 06:20:00,15.1,13.4,29.58,West,270,5.9,5.9,93,0.00,OVC,,0.00,WeatherDisplay:10.37,2013-01-11 13:20:00,
2013-01-11 06:25:00,14.7,13.0,29.60,NNE,22,6.0,9.2,93,0.00,-SN,,0.00,WeatherDisplay:10.37,2013-01-11 13:25:00,
2013-01-11 06:30:00,14.7,13.0,29.60,NW,315,3.1,3.5,93,0.00,-SN,,0.00,WeatherDisplay:10.37,2013-01-11 13:30:00,
2013-01-11 06:35:00,14.5,12.8,29.60,ENE,68,5.6,7.3,93,0.00,-SN,,0.00,WeatherDisplay:10.37,2013-01-11 13:35:00,
2013-01-11 06:40:00,14.4,12.7,29.59,West,270,5.8,6.9,93,0.00,-SN,,0.00,WeatherDisplay:10.37,2013-01-11 13:40:00,
2013-01-11 06:45:00,14.4,12.7,29.59,NNW,338,6.2,6.9,93,0.00,OVC,,0.00,WeatherDisplay:10.37,2013-01-11 13:45:00,
2013-01-11 06:50:00,14.2,12.5,29.59,NW,315,6.1,8.1,93,0.00,OVC,,0.00,WeatherDisplay:10.37,2013-01-11 13:50:00,
2013-01-11 06:55:00,14.2,12.5,29.59,NNE,22,5.5,5.8,93,0.00,OVC,,0.00,WeatherDisplay:10.37,2013-01-11 13:55:00,
2013-01-11 07:00:00,14.2,12.5,29.59,NNW,338,4.1,5.8,93,0.00,OVC,,0.00,WeatherDisplay:10.37,2013-01-11 14:00:00,
2013-01-11 07:05:00,14.4,12.7,29.58,NNW,338,5.5,5.8,93,0.00,OVC,,0.00,WeatherDisplay:10.37,2013-01-11 14:05:00,
2013-01-11 07:10:00,14.0,12.3,29.58,NNE,22,4.0,5.8,93,0.00,OVC,,0.00,WeatherDisplay:10.37,2013-01-11 14:10:00,
2013-01-11 07:15:00,14.0,12.1,29.59,East,90,6.0,6.9,92,0.00,OVC,,0.00,WeatherDisplay:10.37,2013-01-11 14:15:00,
2013-01-11 07:20:00,14.0,12.1,29.59,NW,315,4.6,8.1,92,0.00,OVC,,0.00,WeatherDisplay:10.37,2013-01-11 14:20:00,
2013-01-11 07:25:00,13.6,11.7,29.59,NW,315,6.2,9.2,92,0.00,OVC,,0.00,WeatherDisplay:10.37,2013-01-11 14:25:00,
2013-01-11 07:30:00,13.6,11.7,29.59,NW,315,5.9,7.3,92,0.00,OVC,,0.00,WeatherDisplay:10.37,2013-01-11 14:30:00,
2013-01-11 07:35:00,13.5,11.6,29.59,NW,315,6.8,10.4,92,0.00,OVC,,0.00,WeatherDisplay:10.37,2013-01-11 14:35:00,
2013-01-11 07:40:00,13.5,11.6,29.59,ENE,68,6.5,6.9,92,0.00,OVC,,0.00,WeatherDisplay:10.37,2013-01-11 14:40:00,
2013-01-11 07:45:00,13.3,11.4,29.59,NE,45,5.2,5.8,92,0.00,OVC,,0.00,WeatherDisplay:10.37,2013-01-11 14:45:00,
2013-01-11 07:50:00,13.3,11.4,29.59,North,360,4.1,5.8,92,0.00,OVC,,0.00,WeatherDisplay:10.37,2013-01-11 14:50:00,
2013-01-11 07:55:00,13.3,11.4,29.59,NNW,338,5.9,8.3,92,0.00,OVC,,0.00,WeatherDisplay:10.37,2013-01-11 14:55:00,
2013-01-11 08:00:00,13.3,11.4,29.59,NNW,338,4.6,5.8,92,0.00,OVC,,0.00,WeatherDisplay:10.37,2013-01-11 15:00:00,
2013-01-11 08:05:00,13.3,11.4,29.59,NE,45,3.4,5.8,92,0.00,OVC,,0.00,WeatherDisplay:10.37,2013-01-11 15:05:00,
2013-01-11 08:10:00,13.3,11.4,29.59,North,360,5.3,5.8,92,0.00,OVC,,0.00,WeatherDisplay:10.37,2013-01-11 15:10:00,
2013-01-11 08:15:00,13.3,11.4,29.59,NNW,338,5.5,6.8,92,0.00,OVC,,0.00,WeatherDisplay:10.37,2013-01-11 15:15:00,
2013-01-11 08:20:00,13.1,11.2,29.59,NNE,22,5.8,6.9,92,0.00,OVC,,0.00,WeatherDisplay:10.37,2013-01-11 15:20:00,
2013-01-11 08:25:00,13.1,11.2,29.59,NW,315,5.1,6.8,92,0.00,OVC,,0.00,WeatherDisplay:10.37,2013-01-11 15:25:00,
2013-01-11 08:30:00,13.1,11.2,29.59,NNW,338,5.1,8.1,92,0.00,OVC,,0.00,WeatherDisplay:10.37,2013-01-11 15:30:00,
2013-01-11 08:35:00,13.1,11.2,29.59,NE,45,5.6,6.9,92,0.00,-SN,,0.00,WeatherDisplay:10.37,2013-01-11 15:35:00,
2013-01-11 08:40:00,13.1,11.2,29.58,WNW,292,5.3,5.8,92,0.00,-SN,,0.00,WeatherDisplay:10.37,2013-01-11 15:40:00,
2013-01-11 08:45:00,13.1,11.2,29.58,NW,315,4.8,6.3,92,0.00,-SN,,0.00,WeatherDisplay:10.37,2013-01-11 15:45:00,
2013-01-11 08:50:00,13.1,11.2,29.60,WNW,292,4.4,5.8,92,0.00,-SN,,0.00,WeatherDisplay:10.37,2013-01-11 15:50:00,
2013-01-11 08:55:00,13.1,11.0,29.60,NNE,22,4.7,5.8,91,0.00,-SN,,0.00,WeatherDisplay:10.37,2013-01-11 15:55:00,
2013-01-11 09:00:00,12.7,10.6,29.60,NNE,22,6.0,7.3,91,0.00,-SN,,0.00,WeatherDisplay:10.37,2013-01-11 16:00:00,
2013-01-11 09:05:00,12.2,9.8,29.60,North,360,6.8,6.9,90,0.00,-SN,,0.00,WeatherDisplay:10.37,2013-01-11 16:05:00,
2013-01-11 09:10:00,11.8,9.4,29.60,NE,45,6.8,6.9,90,0.00,-SN,,0.00,WeatherDisplay:10.37,2013-01-11 16:10:00,
2013-01-11 09:15:00,12.0,9.6,29.60,NE,45,4.5,5.8,90,0.00,-SN,,0.00,WeatherDisplay:10.37,2013-01-11 16:15:00,
2013-01-11 09:20:00,12.4,10.3,29.60,East,90,0.6,2.3,91,0.00,-SN,,0.00,WeatherDisplay:10.37,2013-01-11 16:20:00,
2013-01-11 09:25:00,12.0,9.9,29.62,NW,315,3.2,4.6,91,0.00,-SN,,0.00,WeatherDisplay:10.37,2013-01-11 16:25:00,
2013-01-11 09:30:00,12.2,10.1,29.62,NNW,338,4.2,4.6,91,0.00,-SN,,0.00,WeatherDisplay:10.37,2013-01-11 16:30:00,
2013-01-11 09:35:00,12.4,10.3,29.62,WNW,292,3.4,4.6,91,0.00,-SN,,0.00,WeatherDisplay:10.37,2013-01-11 16:35:00,
2013-01-11 09:40:00,12.6,10.5,29.63,West,270,3.1,3.2,91,0.00,-SN,,0.00,WeatherDisplay:10.37,2013-01-11 16:40:00,
2013-01-11 09:45:00,12.4,10.3,29.63,NW,315,3.4,4.6,91,0.00,-SN,,0.00,WeatherDisplay:10.37,2013-01-11 16:45:00,
2013-01-11 09:50:00,12.9,10.8,29.64,NW,315,1.4,1.7,91,0.00,-SN,,0.00,WeatherDisplay:10.37,2013-01-11 16:50:00,
2013-01-11 09:55:00,12.7,10.6,29.64,NW,315,1.7,2.3,91,0.00,-SN,,0.00,WeatherDisplay:10.37,2013-01-11 16:55:00,
2013-01-11 10:00:00,13.3,11.2,29.64,NE,45,0.8,1.1,91,0.00,-SN,,0.00,WeatherDisplay:10.37,2013-01-11 17:00:00,
2013-01-11 10:05:00,12.6,10.2,29.66,West,270,4.1,5.8,90,0.00,-SN,,0.00,WeatherDisplay:10.37,2013-01-11 17:05:00,
2013-01-11 10:10:00,12.4,10.0,29.66,NE,45,5.9,5.9,90,0.00,-SN,,0.00,WeatherDisplay:10.37,2013-01-11 17:10:00,
2013-01-11 10:15:00,12.2,9.8,29.65,NNW,338,4.7,5.3,90,0.00,-SN,,0.00,WeatherDisplay:10.37,2013-01-11 17:15:00,
2013-01-11 10:20:00,12.0,9.6,29.65,NNW,338,3.8,6.9,90,0.00,-SN,,0.00,WeatherDisplay:10.37,2013-01-11 17:20:00,
2013-01-11 10:25:00,12.2,9.8,29.65,NE,45,4.7,5.8,90,0.00,-SN,,0.00,WeatherDisplay:10.37,2013-01-11 17:25:00,
2013-01-11 10:30:00,11.8,9.4,29.64,NNW,338,6.5,8.1,90,0.00,-SN,,0.00,WeatherDisplay:10.37,2013-01-11 17:30:00,
2013-01-11 10:35:00,12.2,9.8,29.64,ENE,68,3.7,5.8,90,0.00,-SN,,0.00,WeatherDisplay:10.37,2013-01-11 17:35:00,
2013-01-11 10:40:00,12.2,9.8,29.64,NW,315,4.9,6.9,90,0.00,-SN,,0.00,WeatherDisplay:10.37,2013-01-11 17:40:00,
2013-01-11 10:45:00,12.6,10.2,29.64,NE,45,4.0,5.8,90,0.00,-SN,,0.00,WeatherDisplay:10.37,2013-01-11 17:45:00,
2013-01-11 10:51:00,12.4,9.8,29.63,NE,45,4.7,5.8,89,0.00,-SN,,0.00,WeatherDisplay:10.37,2013-01-11 17:51:00,
2013-01-11 10:56:00,12.0,9.4,29.63,NW,315,5.8,6.9,89,0.00,-SN,,0.00,WeatherDisplay:10.37,2013-01-11 17:56:00,
2013-01-11 11:01:00,12.4,9.8,29.63,NE,45,3.9,5.8,89,0.00,-SN,,0.00,WeatherDisplay:10.37,2013-01-11 18:01:00,
2013-01-11 11:06:00,12.9,10.5,29.63,NE,45,4.2,4.2,90,0.00,-SN,,0.00,WeatherDisplay:10.37,2013-01-11 18:06:00,
2013-01-11 11:11:00,12.0,9.4,29.63,NNW,338,4.7,5.8,89,0.00,-SN,,0.00,WeatherDisplay:10.37,2013-01-11 18:11:00,
2013-01-11 11:16:00,11.7,9.1,29.63,NE,45,3.8,8.1,89,0.00,-SN,,0.00,WeatherDisplay:10.37,2013-01-11 18:16:00,
2013-01-11 11:21:00,11.7,9.1,29.63,NNE,22,5.2,5.8,89,0.00,-SN,,0.00,WeatherDisplay:10.37,2013-01-11 18:21:00,
2013-01-11 11:26:00,12.0,9.4,29.62,North,360,4.4,5.8,89,0.00,-SN,,0.00,WeatherDisplay:10.37,2013-01-11 18:26:00,
2013-01-11 11:31:00,12.0,9.1,29.62,North,360,7.1,7.1,88,0.00,-SN,,0.00,WeatherDisplay:10.37,2013-01-11 18:31:00,
2013-01-11 11:36:00,11.7,8.8,29.62,NE,45,7.2,8.1,88,0.00,-SN,,0.00,WeatherDisplay:10.37,2013-01-11 18:36:00,
2013-01-11 11:41:00,11.7,8.8,29.63,NW,315,7.9,10.4,88,0.00,-SN,,0.00,WeatherDisplay:10.37,2013-01-11 18:41:00,
2013-01-11 11:46:00,11.7,8.8,29.63,WNW,292,4.5,9.2,88,0.00,-SN,,0.00,WeatherDisplay:10.37,2013-01-11 18:46:00,
2013-01-11 11:51:00,11.7,8.8,29.63,NNW,338,5.3,5.8,88,0.00,-SN,,0.00,WeatherDisplay:10.37,2013-01-11 18:51:00,
2013-01-11 11:56:00,10.9,7.5,29.63,North,360,9.5,10.4,86,0.00,-SN,,0.00,WeatherDisplay:10.37,2013-01-11 18:56:00,
2013-01-11 12:01:00,11.1,8.0,29.63,WNW,292,7.0,8.1,87,0.00,-SN,,0.00,WeatherDisplay:10.37,2013-01-11 19:01:00,
2013-01-11 12:06:00,11.3,8.2,29.63,NW,315,5.3,7.8,87,0.00,-SN,,0.00,WeatherDisplay:10.37,2013-01-11 19:06:00,
2013-01-11 12:11:00,11.3,7.9,29.63,North,360,7.6,8.1,86,0.00,-SN,,0.00,WeatherDisplay:10.37,2013-01-11 19:11:00,
2013-01-11 12:16:00,11.5,8.1,29.61,NNW,338,7.8,9.2,86,0.00,-SN,,0.00,WeatherDisplay:10.37,2013-01-11 19:16:00,
2013-01-11 12:21:00,12.2,8.8,29.61,NNE,22,4.6,5.8,86,0.00,-SN,,0.00,WeatherDisplay:10.37,2013-01-11 19:21:00,
2013-01-11 12:26:00,12.4,9.0,29.62,NNW,338,4.4,8.3,86,0.00,-SN,,0.00,WeatherDisplay:10.37,2013-01-11 19:26:00,
2013-01-11 12:31:00,11.8,8.2,29.62,NE,45,5.8,5.8,85,0.00,-SN,,0.00,WeatherDisplay:10.37,2013-01-11 19:31:00,
2013-01-11 12:36:00,11.7,8.1,29.62,NNW,338,5.9,5.9,85,0.00,-SN,,0.00,WeatherDisplay:10.37,2013-01-11 19:36:00,
2013-01-11 12:41:00,11.7,8.3,29.62,ENE,68,5.6,8.1,86,0.00,-SN,,0.00,WeatherDisplay:10.37,2013-01-11 19:41:00,
2013-01-11 12:46:00,11.3,7.7,29.62,NNE,22,8.4,10.4,85,0.00,-SN,,0.00,WeatherDisplay:10.37,2013-01-11 19:46:00,
2013-01-11 12:51:00,11.3,7.4,29.62,NW,315,8.4,10.4,84,0.00,-SN,,0.00,WeatherDisplay:10.37,2013-01-11 19:51:00,
2013-01-11 12:56:00,11.3,7.1,29.62,NNE,22,5.8,8.1,83,0.00,-SN,,0.00,WeatherDisplay:10.37,2013-01-11 19:56:00,
2013-01-11 13:01:00,11.5,7.6,29.62,NW,315,9.4,9.4,84,0.00,-SN,,0.00,WeatherDisplay:10.37,2013-01-11 20:01:00,
2013-01-11 13:06:00,11.5,7.6,29.62,West,270,6.0,6.9,84,0.00,-SN,,0.00,WeatherDisplay:10.37,2013-01-11 20:06:00,
2013-01-11 13:11:00,12.0,8.1,29.62,East,90,6.6,9.4,84,0.00,-SN,,0.00,WeatherDisplay:10.37,2013-01-11 20:11:00,
2013-01-11 13:16:00,11.7,7.8,29.62,NNW,338,4.3,4.7,84,0.00,-SN,,0.00,WeatherDisplay:10.37,2013-01-11 20:16:00,
2013-01-11 13:21:00,11.1,6.9,29.62,East,90,9.0,11.5,83,0.00,-SN,,0.00,WeatherDisplay:10.37,2013-01-11 20:21:00,
2013-01-11 13:26:00,11.5,7.3,29.63,NNW,338,5.5,6.9,83,0.00,-SN,,0.00,WeatherDisplay:10.37,2013-01-11 20:26:00,
2013-01-11 13:31:00,11.8,7.6,29.63,WNW,292,3.2,4.6,83,0.00,-SN,,0.00,WeatherDisplay:10.37,2013-01-11 20:31:00,
2013-01-11 13:36:00,11.7,7.5,29.63,WNW,292,4.1,4.7,83,0.00,-SN,,0.00,WeatherDisplay:10.37,2013-01-11 20:36:00,
2013-01-11 13:41:00,11.1,7.2,29.64,WNW,292,6.3,10.4,84,0.00,-SN,,0.00,WeatherDisplay:10.37,2013-01-11 20:41:00,
2013-01-11 13:46:00,10.9,7.0,29.64,West,270,7.2,9.2,84,0.00,-SN,,0.00,WeatherDisplay:10.37,2013-01-11 20:46:00,
2013-01-11 13:51:00,10.9,7.0,29.64,WNW,292,4.9,6.3,84,0.00,-SN,,0.00,WeatherDisplay:10.37,2013-01-11 20:51:00,
2013-01-11 13:56:00,10.6,6.7,29.64,NE,45,7.7,10.4,84,0.00,-SN,,0.00,WeatherDisplay:10.37,2013-01-11 20:56:00,
2013-01-11 14:01:00,10.4,6.3,29.64,NE,45,9.6,10.4,83,0.00,-SN,,0.00,WeatherDisplay:10.37,2013-01-11 21:01:00,
2013-01-11 14:06:00,10.6,6.5,29.64,NNW,338,5.0,6.9,83,0.00,-SN,,0.00,WeatherDisplay:10.37,2013-01-11 21:06:00,
2013-01-11 14:11:00,10.8,6.7,29.64,NNE,22,5.3,5.8,83,0.00,-SN,,0.00,WeatherDisplay:10.37,2013-01-11 21:11:00,
2013-01-11 14:16:00,10.8,6.7,29.64,NNW,338,5.9,6.9,83,0.00,-SN,,0.00,WeatherDisplay:10.37,2013-01-11 21:16:00,
2013-01-11 14:21:00,10.8,6.7,29.64,NNW,338,5.3,5.8,83,0.00,-SN,,0.00,WeatherDisplay:10.37,2013-01-11 21:21:00,
2013-01-11 14:26:00,11.3,7.4,29.64,North,360,3.1,6.9,84,0.00,-SN,,0.00,WeatherDisplay:10.37,2013-01-11 21:26:00,
2013-01-11 14:31:00,11.5,7.6,29.64,West,270,3.6,5.8,84,0.00,-SN,,0.00,WeatherDisplay:10.37,2013-01-11 21:31:00,
2013-01-11 14:36:00,11.1,6.9,29.64,NNW,338,5.7,8.1,83,0.00,-SN,,0.00,WeatherDisplay:10.37,2013-01-11 21:36:00,
2013-01-11 14:41:00,11.3,7.1,29.64,NNW,338,5.7,10.4,83,0.00,-SN,,0.00,WeatherDisplay:10.37,2013-01-11 21:41:00,
2013-01-11 14:46:00,10.8,6.7,29.64,NNW,338,6.0,6.0,83,0.00,-SN,,0.00,WeatherDisplay:10.37,2013-01-11 21:46:00,
2013-01-11 14:51:00,10.2,6.3,29.65,NW,315,8.1,11.4,84,0.00,-SN,,0.00,WeatherDisplay:10.37,2013-01-11 21:51:00,
2013-01-11 14:56:00,9.9,5.5,29.65,NE,45,5.1,5.8,82,0.00,-SN,,0.00,WeatherDisplay:10.37,2013-01-11 21:56:00,
2013-01-11 15:01:00,9.5,5.1,29.65,North,360,8.9,9.4,82,0.00,-SN,,0.00,WeatherDisplay:10.37,2013-01-11 22:01:00,
2013-01-11 15:06:00,9.5,5.1,29.65,NNW,338,6.8,9.2,82,0.00,-SN,,0.00,WeatherDisplay:10.37,2013-01-11 22:06:00,
2013-01-11 15:11:00,9.1,4.7,29.65,NW,315,8.9,9.4,82,0.00,-SN,,0.00,WeatherDisplay:10.37,2013-01-11 22:11:00,
2013-01-11 15:16:00,9.1,4.7,29.66,NW,315,6.5,10.4,82,0.00,-SN,,0.00,WeatherDisplay:10.37,2013-01-11 22:16:00,
2013-01-11 15:21:00,9.1,4.7,29.66,WNW,292,6.7,9.2,82,0.00,-SN,,0.00,WeatherDisplay:10.37,2013-01-11 22:21:00,
2013-01-11 15:26:00,9.0,4.6,29.66,North,360,8.3,9.9,82,0.00,-SN,,0.00,WeatherDisplay:10.37,2013-01-11 22:26:00,
2013-01-11 15:31:00,9.0,4.9,29.66,NNW,338,6.5,6.9,83,0.00,-SN,,0.00,WeatherDisplay:10.37,2013-01-11 22:31:00,
2013-01-11 15:36:00,9.1,5.0,29.66,West,270,9.3,9.3,83,0.00,-SN,,0.00,WeatherDisplay:10.37,2013-01-11 22:36:00,
2013-01-11 15:42:00,9.1,5.0,29.66,NNW,338,8.3,10.4,83,0.00,-SN,,0.00,WeatherDisplay:10.37,2013-01-11 22:42:00,
2013-01-11 15:47:00,9.1,5.2,29.66,NNW,338,5.3,5.8,84,0.00,-SN,,0.00,WeatherDisplay:10.37,2013-01-11 22:47:00,
2013-01-11 15:52:00,8.8,5.0,29.66,NNW,338,9.2,9.9,84,0.00,-SN,,0.00,WeatherDisplay:10.37,2013-01-11 22:52:00,
2013-01-11 15:57:00,8.6,4.8,29.66,NNW,338,5.8,8.1,84,0.00,-SN,,0.00,WeatherDisplay:10.37,2013-01-11 22:57:00,
2013-01-11 16:02:00,8.6,4.8,29.67,NNE,22,7.3,8.3,84,0.00,-SN,,0.00,WeatherDisplay:10.37,2013-01-11 23:02:00,
2013-01-11 16:07:00,8.6,4.8,29.67,NNW,338,5.0,6.9,84,0.00,-SN,,0.00,WeatherDisplay:10.37,2013-01-11 23:07:00,
2013-01-11 16:12:00,8.6,4.8,29.67,NW,315,6.2,9.2,84,0.00,-SN,,0.00,WeatherDisplay:10.37,2013-01-11 23:12:00,
2013-01-11 16:17:00,8.6,4.8,29.67,South,180,6.7,10.4,84,0.00,-SN,,0.00,WeatherDisplay:10.37,2013-01-11 23:17:00,
2013-01-11 16:22:00,8.4,4.3,29.67,North,360,8.6,10.4,83,0.00,-SN,,0.00,WeatherDisplay:10.37,2013-01-11 23:22:00,
2013-01-11 16:27:00,8.4,4.3,29.68,NW,315,8.5,11.5,83,0.00,-SN,,0.00,WeatherDisplay:10.37,2013-01-11 23:27:00,
2013-01-11 16:32:00,8.2,4.1,29.68,North,360,6.8,8.3,83,0.00,-SN,,0.00,WeatherDisplay:10.37,2013-01-11 23:32:00,
2013-01-11 16:37:00,8.2,4.1,29.68,NNW,338,6.4,8.1,83,0.00,-SN,,0.00,WeatherDisplay:10.37,2013-01-11 23:37:00,
2013-01-11 16:42:00,8.2,4.1,29.68,NNW,338,7.7,10.4,83,0.00,-SN,,0.00,WeatherDisplay:10.37,2013-01-11 23:42:00,
2013-01-11 16:47:00,8.4,4.6,29.68,WNW,292,7.0,9.2,84,0.00,-SN,,0.00,WeatherDisplay:10.37,2013-01-11 23:47:00,
2013-01-11 16:52:00,8.2,4.1,29.69,SW,225,5.3,6.9,83,0.00,-SN,,0.00,WeatherDisplay:10.37,2013-01-11 23:52:00,
2013-01-11 16:57:00,8.1,4.0,29.69,NNW,338,9.2,10.4,83,0.00,-SN,,0.00,WeatherDisplay:10.37,2013-01-11 23:57:00,
2013-01-11 17:02:00,8.1,4.0,29.70,WSW,248,8.3,12.4,83,0.00,-SN,,0.00,WeatherDisplay:10.37,2013-01-12 00:02:00,
2013-01-11 17:07:00,8.1,4.3,29.70,East,90,5.3,7.3,84,0.00,-SN,,0.00,WeatherDisplay:10.37,2013-01-12 00:07:00,
2013-01-11 17:12:00,7.9,3.8,29.70,NW,315,8.4,9.2,83,0.00,-SN,,0.00,WeatherDisplay:10.37,2013-01-12 00:12:00,
2013-01-11 17:17:00,7.9,3.8,29.71,WNW,292,9.0,10.4,83,0.00,-SN,,0.00,WeatherDisplay:10.37,2013-01-12 00:17:00,
2013-01-11 17:22:00,7.9,3.8,29.71,West,270,9.4,10.4,83,0.00,-SN,,0.00,WeatherDisplay:10.37,2013-01-12 00:22:00,
2013-01-11 17:27:00,7.9,4.1,29.71,NNE,22,8.1,10.4,84,0.00,-SN,,0.00,WeatherDisplay:10.37,2013-01-12 00:27:00,
2013-01-11 17:32:00,7.9,4.1,29.71,WNW,292,6.4,9.2,84,0.00,-SN,,0.00,WeatherDisplay:10.37,2013-01-12 00:32:00,
2013-01-11 17:37:00,7.9,3.8,29.71,North,360,8.3,10.4,83,0.00,-SN,,0.00,WeatherDisplay:10.37,2013-01-12 00:37:00,
2013-01-11 17:42:00,7.9,4.1,29.72,NNE,22,4.4,6.9,84,0.00,-SN,,0.00,WeatherDisplay:10.37,2013-01-12 00:42:00,
2013-01-11 17:47:00,7.9,4.3,29.72,WNW,292,7.7,11.5,85,0.00,-SN,,0.00,WeatherDisplay:10.37,2013-01-12 00:47:00,
2013-01-11 17:52:00,7.9,3.5,29.71,North,360,7.7,8.3,82,0.00,-SN,,0.00,WeatherDisplay:10.37,2013-01-12 00:52:00,
2013-01-11 17:57:00,7.9,3.5,29.71,NW,315,7.0,8.1,82,0.00,-SN,,0.00,WeatherDisplay:10.37,2013-01-12 00:57:00,
2013-01-11 18:02:00,7.9,3.8,29.71,NNW,338,6.0,6.9,83,0.00,-SN,,0.00,WeatherDisplay:10.37,2013-01-12 01:02:00,
2013-01-11 18:07:00,7.7,3.6,29.71,NNW,338,6.2,9.2,83,0.00,-SN,,0.00,WeatherDisplay:10.37,2013-01-12 01:07:00,
2013-01-11 18:12:00,7.3,3.7,29.71,NW,315,5.5,8.8,85,0.00,-SN,,0.00,WeatherDisplay:10.37,2013-01-12 01:12:00,
2013-01-11 18:17:00,6.8,3.2,29.72,NE,45,6.2,8.1,85,0.00,-SN,,0.00,WeatherDisplay:10.37,2013-01-12 01:17:00,
2013-01-11 18:22:00,6.4,2.9,29.72,WNW,292,5.8,6.9,85,0.00,-SN,,0.00,WeatherDisplay:10.37,2013-01-12 01:22:00,
2013-01-11 18:27:00,6.4,2.9,29.72,ENE,68,6.0,6.8,85,0.00,-SN,,0.00,WeatherDisplay:10.37,2013-01-12 01:27:00,
2013-01-11 18:32:00,6.4,2.9,29.72,West,270,8.1,12.7,85,0.00,-SN,,0.00,WeatherDisplay:10.37,2013-01-12 01:32:00,
2013-01-11 18:37:00,6.3,2.8,29.72,WSW,248,8.8,11.5,85,0.00,-SN,,0.00,WeatherDisplay:10.37,2013-01-12 01:37:00,
2013-01-11 18:42:00,6.1,2.6,29.72,NW,315,7.2,11.4,85,0.00,-SN,,0.00,WeatherDisplay:10.37,2013-01-12 01:42:00,
2013-01-11 18:47:00,6.1,2.3,29.72,East,90,7.3,10.4,84,0.00,-SN,,0.00,WeatherDisplay:10.37,2013-01-12 01:47:00,
2013-01-11 18:52:00,5.9,1.8,29.73,NNW,338,9.4,15.0,83,0.00,-SN,,0.00,WeatherDisplay:10.37,2013-01-12 01:52:00,
2013-01-11 18:57:00,5.7,1.9,29.73,NW,315,7.8,10.4,84,0.00,-SN,,0.00,WeatherDisplay:10.37,2013-01-12 01:57:00,
2013-01-11 19:02:00,5.7,1.9,29.73,NW,315,6.2,10.9,84,0.00,-SN,,0.00,WeatherDisplay:10.37,2013-01-12 02:02:00,
2013-01-11 19:07:00,5.7,1.9,29.73,North,360,7.6,12.7,84,0.00,-SN,,0.00,WeatherDisplay:10.37,2013-01-12 02:07:00,
2013-01-11 19:12:00,5.5,1.5,29.73,NW,315,8.1,9.4,83,0.00,-SN,,0.00,WeatherDisplay:10.37,2013-01-12 02:12:00,
2013-01-11 19:17:00,5.4,1.4,29.72,NNW,338,9.3,10.4,83,0.00,-SN,,0.00,WeatherDisplay:10.37,2013-01-12 02:17:00,
2013-01-11 19:22:00,5.4,1.4,29.72,West,270,6.0,12.4,83,0.00,-SN,,0.00,WeatherDisplay:10.37,2013-01-12 02:22:00,
2013-01-11 19:27:00,5.4,1.4,29.73,West,270,7.1,8.1,83,0.00,-SN,,0.00,WeatherDisplay:10.37,2013-01-12 02:27:00,
2013-01-11 19:32:00,5.2,1.2,29.73,West,270,8.9,13.8,83,0.00,-SN,,0.00,WeatherDisplay:10.37,2013-01-12 02:32:00,
2013-01-11 19:37:00,5.2,1.2,29.73,WNW,292,9.5,9.9,83,0.00,-SN,,0.00,WeatherDisplay:10.37,2013-01-12 02:37:00,
2013-01-11 19:42:00,5.2,1.2,29.74,NE,45,11.9,11.9,83,0.00,-SN,,0.00,WeatherDisplay:10.37,2013-01-12 02:42:00,
2013-01-11 19:47:00,5.2,1.2,29.74,West,270,9.2,12.7,83,0.00,-SN,,0.00,WeatherDisplay:10.37,2013-01-12 02:47:00,
2013-01-11 19:52:00,5.0,1.0,29.74,NW,315,8.0,10.4,83,0.00,-SN,,0.00,WeatherDisplay:10.37,2013-01-12 02:52:00,
2013-01-11 19:57:00,5.0,1.0,29.74,NW,315,9.7,12.7,83,0.00,-SN,,0.00,WeatherDisplay:10.37,2013-01-12 02:57:00,
2013-01-11 20:02:00,5.0,1.0,29.74,North,360,10.5,11.5,83,0.00,-SN,,0.00,WeatherDisplay:10.37,2013-01-12 03:02:00,
2013-01-11 20:07:00,5.0,1.0,29.74,WSW,248,4.8,13.8,83,0.00,-SN,,0.00,WeatherDisplay:10.37,2013-01-12 03:07:00,
2013-01-11 20:12:00,4.8,0.8,29.74,North,360,6.7,10.4,83,0.00,-SN,,0.00,WeatherDisplay:10.37,2013-01-12 03:12:00,
2013-01-11 20:17:00,4.8,0.8,29.74,WNW,292,9.7,10.4,83,0.00,-SN,,0.00,WeatherDisplay:10.37,2013-01-12 03:17:00,
2013-01-11 20:22:00,4.8,0.8,29.74,West,270,9.3,11.4,83,0.00,-SN,,0.00,WeatherDisplay:10.37,2013-01-12 03:22:00,
2013-01-11 20:27:00,4.8,0.5,29.75,NW,315,7.3,10.4,82,0.00,-SN,,0.00,WeatherDisplay:10.37,2013-01-12 03:27:00,
2013-01-11 20:33:00,4.8,0.5,29.75,NNW,338,5.4,9.2,82,0.00,-SN,,0.00,WeatherDisplay:10.37,2013-01-12 03:33:00,
2013-01-11 20:38:00,4.8,0.5,29.75,WNW,292,9.8,10.4,82,0.00,-SN,,0.00,WeatherDisplay:10.37,2013-01-12 03:38:00,
2013-01-11 20:43:00,5.0,0.7,29.75,WNW,292,6.4,12.7,82,0.00,-SN,,0.00,WeatherDisplay:10.37,2013-01-12 03:43:00,
2013-01-11 20:48:00,5.0,0.7,29.75,NW,315,8.3,11.5,82,0.00,-SN,,0.00,WeatherDisplay:10.37,2013-01-12 03:48:00,
2013-01-11 20:53:00,5.0,0.7,29.75,WSW,248,9.7,12.7,82,0.00,-SN,,0.00,WeatherDisplay:10.37,2013-01-12 03:53:00,
2013-01-11 20:58:00,5.0,0.7,29.75,WSW,248,7.0,11.5,82,0.00,-SN,,0.00,WeatherDisplay:10.37,2013-01-12 03:58:00,
2013-01-11 21:03:00,5.0,0.7,29.75,NNE,22,8.2,10.4,82,0.00,-SN,,0.00,WeatherDisplay:10.37,2013-01-12 04:03:00,
2013-01-11 21:08:00,5.0,0.7,29.75,West,270,5.7,10.4,82,0.00,-SN,,0.00,WeatherDisplay:10.37,2013-01-12 04:08:00,
2013-01-11 21:13:00,4.8,0.8,29.75,North,360,7.5,10.4,83,0.00,-SN,,0.00,WeatherDisplay:10.37,2013-01-12 04:13:00,
2013-01-11 21:18:00,4.6,0.6,29.75,WSW,248,7.2,9.2,83,0.00,-SN,,0.00,WeatherDisplay:10.37,2013-01-12 04:18:00,
2013-01-11 21:23:00,4.6,0.6,29.75,NE,45,6.4,12.7,83,0.00,-SN,,0.00,WeatherDisplay:10.37,2013-01-12 04:23:00,
2013-01-11 21:28:00,4.6,0.6,29.76,NNW,338,7.8,8.1,83,0.00,-SN,,0.00,WeatherDisplay:10.37,2013-01-12 04:28:00,
2013-01-11 21:33:00,4.6,0.6,29.76,NNE,22,6.9,12.4,83,0.00,-SN,,0.00,WeatherDisplay:10.37,2013-01-12 04:33:00,
2013-01-11 21:38:00,4.6,0.6,29.76,West,270,9.7,12.7,83,0.00,-SN,,0.00,WeatherDisplay:10.37,2013-01-12 04:38:00,
2013-01-11 21:43:00,4.6,0.6,29.76,WNW,292,7.6,12.7,83,0.00,-SN,,0.00,WeatherDisplay:10.37,2013-01-12 04:43:00,
2013-01-11 21:48:00,4.6,0.6,29.76,WNW,292,10.6,11.5,83,0.00,-SN,,0.00,WeatherDisplay:10.37,2013-01-12 04:48:00,
2013-01-11 21:53:00,4.6,0.6,29.76,WNW,292,11.4,12.7,83,0.00,-SN,,0.00,WeatherDisplay:10.37,2013-01-12 04:53:00,
2013-01-11 21:58:00,4.6,0.6,29.76,WNW,292,8.3,9.4,83,0.00,-SN,,0.00,WeatherDisplay:10.37,2013-01-12 04:58:00,
2013-01-11 22:00:00,4.6,0.6,29.76,NW,315,9.3,10.4,83,0.00,-SN,,0.00,WeatherDisplay:10.37,2013-01-12 05:00:00,
2013-01-11 22:01:00,4.6,0.6,29.76,North,360,8.5,10.4,83,0.00,-SN,,0.00,WeatherDisplay:10.37,2013-01-12 05:01:00,
2013-01-11 22:03:00,4.6,0.6,29.76,NW,315,9.0,10.4,83,0.00,-SN,,0.00,WeatherDisplay:10.37,2013-01-12 05:03:00,
2013-01-11 22:08:00,4.5,0.2,29.76,WNW,292,9.1,12.7,82,0.00,-SN,,0.00,WeatherDisplay:10.37,2013-01-12 05:08:00,
2013-01-11 22:13:00,4.5,0.2,29.76,West,270,5.4,5.8,82,0.00,-SN,,0.00,WeatherDisplay:10.37,2013-01-12 05:13:00,
2013-01-11 22:18:00,4.5,0.5,29.76,WNW,292,11.5,14.5,83,0.00,-SN,,0.00,WeatherDisplay:10.37,2013-01-12 05:18:00,
2013-01-11 22:23:00,4.3,0.0,29.76,WNW,292,8.1,11.4,82,0.00,-SN,,0.00,WeatherDisplay:10.37,2013-01-12 05:23:00,
2013-01-11 22:28:00,4.3,0.0,29.77,NNE,22,8.1,10.4,82,0.00,-SN,,0.00,WeatherDisplay:10.37,2013-01-12 05:28:00,
2013-01-11 22:33:00,4.3,0.0,29.77,WSW,248,6.3,6.9,82,0.00,-SN,,0.00,WeatherDisplay:10.37,2013-01-12 05:33:00,
2013-01-11 22:38:00,4.1,-0.2,29.78,NNW,338,7.6,12.7,82,0.00,-SN,,0.00,WeatherDisplay:10.37,2013-01-12 05:38:00,
2013-01-11 22:43:00,4.1,-0.2,29.78,West,270,8.2,10.4,82,0.00,-SN,,0.00,WeatherDisplay:10.37,2013-01-12 05:43:00,
2013-01-11 22:48:00,4.1,-0.2,29.78,WNW,292,10.5,16.1,82,0.00,-SN,,0.00,WeatherDisplay:10.37,2013-01-12 05:48:00,
2013-01-11 22:53:00,4.1,-0.2,29.78,North,360,8.6,10.4,82,0.00,-SN,,0.00,WeatherDisplay:10.37,2013-01-12 05:53:00,
2013-01-11 22:58:00,3.9,-0.4,29.78,NNW,338,9.4,9.4,82,0.00,-SN,,0.00,WeatherDisplay:10.37,2013-01-12 05:58:00,
2013-01-11 23:03:00,3.6,-0.4,29.79,West,270,8.7,10.4,83,0.00,-SN,,0.00,WeatherDisplay:10.37,2013-01-12 06:03:00,
2013-01-11 23:08:00,3.6,-0.4,29.79,NNE,22,6.7,8.1,83,0.00,-SN,,0.00,WeatherDisplay:10.37,2013-01-12 06:08:00,
2013-01-11 23:13:00,3.4,-0.6,29.79,NNW,338,8.9,10.4,83,0.00,-SN,,0.00,WeatherDisplay:10.37,2013-01-12 06:13:00,
2013-01-11 23:18:00,3.2,-0.8,29.79,NNE,22,11.0,13.8,83,0.00,-SN,,0.00,WeatherDisplay:10.37,2013-01-12 06:18:00,
2013-01-11 23:23:00,3.2,-0.8,29.79,West,270,6.2,9.2,83,0.00,-SN,,0.00,WeatherDisplay:10.37,2013-01-12 06:23:00,
2013-01-11 23:28:00,3.2,-0.8,29.79,West,270,10.4,10.4,83,0.00,-SN,,0.00,WeatherDisplay:10.37,2013-01-12 06:28:00,
2013-01-11 23:33:00,3.2,-0.5,29.79,West,270,7.0,13.8,84,0.00,-SN,,0.00,WeatherDisplay:10.37,2013-01-12 06:33:00,
2013-01-11 23:38:00,3.2,-0.5,29.80,NNW,338,9.0,12.4,84,0.00,-SN,,0.00,WeatherDisplay:10.37,2013-01-12 06:38:00,
2013-01-11 23:43:00,3.0,-0.7,29.80,North,360,10.2,17.1,84,0.00,-SN,,0.00,WeatherDisplay:10.37,2013-01-12 06:43:00,
2013-01-11 23:48:00,2.8,-0.9,29.80,NNW,338,8.8,12.7,84,0.00,-SN,,0.00,WeatherDisplay:10.37,2013-01-12 06:48:00,
2013-01-11 23:53:00,2.8,-0.9,29.80,NW,315,13.5,16.0,84,0.00,-SN,,0.00,WeatherDisplay:10.37,2013-01-12 06:53:00,
2013-01-11 23:58:00,2.7,-1.3,29.80,NW,315,12.5,15.0,83,0.00,-SN,,0.00,WeatherDisplay:10.37,2013-01-12 06:58:00,